Погода в Амитхаше

Россия / Забайкальский край     51°04′58″N   114°28′08″E
темп.,
°C
ветер,
м/с
пор.,
м/с
влажн.,
%
обл.,
%
осадки,
мм/ч
давл.,
гПа
погр.,
м
13 мая, чт
чт1300:00+6з4105830 0.1 1008215
03:00+5з412660 0.1 1008294
06:00+3зсз3776100 0.0 1009146
09:00+7зсз5850100 0.0 10091101
12:00+10зсз7834100 0.0 10071768
15:00+10з5829100 0.1 10062162
18:00+12сз572061 0.0 10042800
21:00+8сз4731100 0.0 1005130
14 мая, пт
пт1400:00+6з4935100 0.0 1008271
03:00+2зсз31049100 0.0 1009235
06:000зсз511520 0.0 1010367
09:00+4сз67555 0.0 1010770
12:00+10ссз81035100 0.0 10082464
15:00+11ссз8935100 0.0 10082752
18:00+11ссз81035100 0.0 10082359
21:00+8сз41052100 0.0 1010485
15 мая, сб
сб1500:00+6з235287 0.0 101249
03:00+4з33585 0.0 101325
06:00+3з33590 0.0 101433
09:00+10зсз68320 0.0 1013691
12:00+14зсз67240 0.0 10111779
15:00+17зсз58180 0.0 10092679
18:00+18зсз58155 0.0 10063598
21:00+14з5122899 0.0 1006345
16 мая, вс
вс1600:00+10зсз10164160 0.0 1009793
03:00+5зсз917441 0.0 1011978
06:00+5зсз917505 0.0 10101209
09:00+8зсз1217495 0.0 10091578
12:00+13сз1214345 0.0 10071622
15:00+17сз111433100 0.0 10052282
18:00+15зсз10174589 0.0 10062167
21:00+13зсз814525 0.0 1006991
17 мая, пн
пн1700:00+10зсз61266100 0.0 1007524
03:00+8зсз5127949 0.0 1007430
06:00+9з61277100 0.0 1007608
09:00+13зсз7125994 0.0 10051330
12:00+18зсз81241100 0.0 10032116
15:00+19зсз10143885 0.0 10012507
18:00+18зсз10164099 0.0 10012018
21:00+13сз10144488 0.1 1003892